Flag for U.S.A. Weather past 2 weeks in Youngstown, Ohio, U.S.A.

Now
53 °F

Scattered clouds.


Feels Like: 51 °F
Forecast: 37 / 60 °F
Wind: 8 mph from North

Location: Youngstown-Warren Regional Airport


UV Index: 5 (Moderate)

Visibility: 10 mi


Pressure: 30.24 "Hg

Humidity: 56%

Dew point: 38 °F

Location of YoungstownLocation

Historic Weather in Youngstown

°F

Youngstown temperature yesterday

Maximum temperature yesterday: 63 °F (at 5:51 PM)
Minimum temperature yesterday: 35 °F (at 12:51 AM)
Average temperature yesterday: 48 °F

Past Weeks' High & Low Weather Summary

 TemperatureHumidityPressure
High79 °F (Apr 13, 3:51 PM)100% (Apr 4, 8:51 AM)30.51 "Hg (Apr 4, 8:51 AM)
Low20 °F (Apr 16, 4:51 AM)23% (Apr 12, 5:51 PM)29.31 "Hg (Apr 8, 2:51 AM)
Average48 °F61%29.97 "Hg
* Reported Apr 3 8:51 PM — Apr 18 8:51 PM, Youngstown, Weather by CustomWeather, © 2014

Note: Actual official high and low records may vary slightly from our data, if they occured in-between our weather recording intervals... More about our weather records

Advertising

Historic Weather Conditions — Data for Previous 24 hours

 ConditionsComfort  
Time TempWeatherWind HumidityBarometerVisibility
8:51 PM
Apr 18
53 °FScattered clouds.8 mph56%30.24 "Hg10 mi
7:51 PM56 °FPartly sunny.7 mph49%30.22 "Hg10 mi
6:51 PM60 °FPartly sunny.12 mph44%30.23 "Hg10 mi
5:51 PM62 °FBroken clouds.14 mph39%30.23 "Hg10 mi
4:51 PM64 °FMostly cloudy.14 mph34%30.22 "Hg10 mi
3:51 PM66 °FBroken clouds.16 mph29%30.22 "Hg10 mi
2:51 PM64 °FCloudy.6 mph32%30.24 "Hg10 mi
1:51 PM63 °FMore clouds than sun.7 mph31%30.25 "Hg10 mi
12:51 PM61 °FHigh level clouds.5 mph34%30.27 "Hg10 mi
11:51 AM58 °FHigh level clouds.3 mph35%30.29 "Hg10 mi
10:51 AM55 °FOvercast.7 mph39%30.31 "Hg10 mi
9:51 AM51 °FMore clouds than sun.6 mph41%30.30 "Hg10 mi
8:51 AM47 °FOvercast.7 mph50%30.31 "Hg10 mi
7:51 AM44 °FMostly cloudy.9 mph53%30.31 "Hg10 mi
6:51 AM41 °FPassing clouds.9 mph58%30.31 "Hg10 mi
5:51 AM41 °FPassing clouds.9 mph58%30.30 "Hg10 mi
4:51 AM43 °FPassing clouds.8 mph53%30.29 "Hg10 mi
3:51 AM44 °FPassing clouds.12 mph51%30.29 "Hg10 mi
2:51 AM45 °FPassing clouds.12 mph49%30.30 "Hg10 mi
1:51 AM46 °FPassing clouds.9 mph48%30.32 "Hg10 mi
12:51 AM48 °FPartly cloudy.10 mph44%30.33 "Hg10 mi
11:51 PM
Apr 17
50 °FPassing clouds.10 mph41%30.36 "Hg10 mi
10:51 PM51 °FPassing clouds.8 mph39%30.36 "Hg10 mi
Weather by CustomWeather, © 2014

See weather overview